ATLAS D R/B, 2328

Orbit data source: Space-Track

ATLAS D R/B, 2328 is space debris in LEO originally from a launch on Thu, 14 Jul 1966 UTC launched from the Air Force Western Test Range (AFWTR). Debris objects in space refer to the collection of defunct objects orbiting the Earth. Examples of debris include non-operational satellites, rocket bodies, and fragments generated from explosions, collisions, or faulty payload assembly.

Loading next visibility...
Identifier
2328, 1966-063C
Orbit
LEO
Country
Flag of USUS
Related business
Manufacturer
ABL
Mission
Spacecraft
Bus & Motor
ALTAIR, Unknown motor
Mass
~125 kg wet, ~125 kg dry
Launch date (UTC)
1966-07-14 (60 years ago)
Launch vehicle
Unknown
Launch site
Air Force Western Test Range (AFWTR)
Object type
Payload
Rocket body
Debris
Shape & HBR
Unknown
Radar Cross Section
Medium (>0.1 m² and <1 m²)

Expand to show TLE details & history
Last TLE update: 7 hours ago

TLE from 7 hours ago
0 ATLAS D R/B
1 02328U 66063C   26070.92349799  .00000288  00000-0  46080-4 0  9993
2 02328 144.2322 284.1852 0010245 229.7482 250.5896 13.69976461986900
Epoch: 2026-03-11T22:09Z
TLE epoch observation values (Epoch: 2026-03-11T22:09:50.226Z)
Latitude
30.45399°
Longitude
16.43383°
Altitude
1,002.162 km
Speed
7.354 km/s
True Right ascension
10h 33m 53s
True Declination
30° 18' 32"
Sunlit
Object was in full shadow at epoch
Visualization orbit readout
Latitude
Unknown
Longitude
Unknown
Altitude
Unknown
Speed
Unknown
Apparent Right ascension
Unknown
Apparent Declination
Unknown
Sunlit
N/A
Visualization observer readout
Local Sidereal Time
09:04:41
Azimuth
Unknown
Elevation
Unknown
Doppler factor
Unknown
Orbital elements
Apogee altitude
1,010.133 km
Perigee altitude
995.01 km
Semi-major axis
7,380.708 km
Eccentricity
0.00102
Inclination
144.2322°
RAAN
284.1852°
Arg. of periapsis
229.7482°
True anomaly
250.47892°
Mean anomaly
250.5896°
Eccentric anomaly
250.53426°
Mean motion
3.42291 °/min
Orbital period
105.17 mins
BSTAR
0.00004608
Loading maneuver chart data...
Computing Atmospheric mass density...
Loading historical data...
Loading historical data...
Loading historical data...
Loading historical data...
Loading historical data...
Loading historical data...
Loading historical data...

Documentation

Showing up to 5 results
|